Tracking 17141 objects as of 5-July-2015
HD Live streaming from Space Station

COSMOS 2230

Track COSMOS 2230 now!
10-day predictions
COSMOS 2230 is classified as:


NORAD ID: 22307
Int'l Code: 1993-001A
Perigee: 975.3 km
Apogee: 1,013.0 km
Inclination: 82.9 °
Period: 104.8 minutes
Semi major axis: 7365 km
RCS: 1.5931 m2 (large)
Launch date: January 12, 1993
Source: Commonwealth of Independent States (former USSR) (CIS)
Your satellite tracking list
Your tracking list is empty





NASA's NSSDC Master Catalog

Two Line Element Set (TLE):
1 22307U 93001A   15186.52781997  .00000065  00000-0  53101-4 0  9991
2 22307 082.9404 005.1652 0025613 134.3485 278.7453 13.73498296118285

Source of the keplerian elements: AFSPC

N2YO: 242